Location: Trout Lake
(45.9980°N, 121.5270°W)
Time: 19:21:48
(UTC-08:00)

Meteor 1-26 Rocket - Pass Details

Date: 06 December 2023
Orbit: 806 x 928 km, 81.3° (Epoch: 22 February)

Event Time Altitude Azimuth Distance (km) Brightness Sun altitude
Rises 18:16:51 0° 183° (S) 3,355 7.5 -19.3°
Reaches altitude 10° 18:19:12 10° 181° (S) 2,441 6.8 -19.7°
Maximum altitude 18:24:43 74° 98° (E) 892 4.1 -20.6°
Enters shadow 18:30:03 12° 15° (NNE) 2,384 6.3 -21.6°
